"startDT [UTC]","vpos","CH4 [ppm]","stdev(CH4) [ppm]","CO2 [ppm]","stdev(CO2) [ppm]","H2O_reported [%]","stdev(H2O_reported)","CavityPressure [torr]","CavityTemp [C]","OutletValve","CH4_dry [ppm]","CO2_dry [ppm]","DasTemp [C]","EtalonTemp [C]","WarmBoxTemp [C]","MPVPosition","T_ECpre [C]","T_EC1 [C]","T_EC2 [C]","p_inlet [hPa]","p_in [hPa]","p_out [hPa]","T_inlet [C]","RH_inlet [%]","dwpt_inlet [C]","T_vent [C]","RH_vent [%]","dwpt_vent [C]","flow_vent [l min-1]","flow_inlet [l min-1]","dwpt_sample [C]","T_room [C]"
2015-12-09 00:00:00,0.0,1.96180,0.00036,408.873,0.029,0.0244,0.0020,139.997,45.000,31261.70636,1.96226,408.992,27.615,45.072,45.000,0.00,0.09,-272.73,-272.79,1,509,-940,14.1,1.2,-39.6,14.3,1.3,-38.6,5.73,2.22,-21.9,20.9
2015-12-09 00:01:00,0.0,1.96181,0.00041,408.864,0.040,0.0241,0.0015,139.998,45.000,31263.88646,1.96227,408.984,27.589,45.072,45.000,0.00,0.09,-272.73,-272.78,1,509,-940,14.1,1.2,-39.6,14.3,1.3,-38.6,5.73,2.22,-21.9,20.9
2015-12-09 00:02:00,0.0,1.96252,0.00035,408.872,0.032,0.0248,0.0016,139.999,45.000,31265.29335,1.96296,408.993,27.591,45.072,45.000,0.00,0.09,-272.74,-272.80,1,509,-940,14.1,1.2,-39.5,14.3,1.3,-38.6,5.73,2.23,-22.0,20.9
2015-12-09 00:03:00,0.0,1.96290,0.00057,408.896,0.041,0.0248,0.0020,139.998,45.000,31263.80410,1.96337,409.015,27.572,45.072,45.000,0.00,0.09,-272.74,-272.79,1,509,-940,14.1,1.2,-39.5,14.3,1.3,-38.6,5.73,2.23,-22.0,20.9
2015-12-09 00:04:00,0.0,1.96424,0.00044,408.931,0.031,0.0241,0.0019,140.002,45.000,31266.16421,1.96468,409.051,27.543,45.072,45.000,0.00,0.09,-272.74,-272.79,1,509,-940,14.1,1.2,-39.4,14.3,1.3,-38.6,5.73,2.22,-22.1,20.9
2015-12-09 00:05:00,0.0,1.96428,0.00019,408.919,0.026,0.0247,0.0019,139.997,45.000,31266.39886,1.96476,409.039,27.540,45.072,45.000,0.00,0.09,-272.74,-272.78,1,509,-940,14.1,1.3,-39.2,14.3,1.3,-38.4,5.73,2.22,-22.1,20.9
2015-12-09 00:06:00,0.0,1.96481,0.00030,408.967,0.036,0.0257,0.0016,140.000,45.000,31266.32697,1.96528,409.092,27.560,45.072,45.000,0.00,0.09,-272.74,-272.79,1,509,-940,14.1,1.3,-39.1,14.3,1.4,-38.3,5.73,2.22,-22.2,20.9
2015-12-09 00:07:00,0.0,1.96459,0.00045,408.968,0.037,0.0254,0.0025,139.999,45.000,31264.45749,1.96511,409.095,27.561,45.072,45.000,0.00,0.09,-272.73,-272.78,1,509,-940,14.1,1.3,-39.0,14.3,1.4,-38.2,5.73,2.22,-22.2,20.9
2015-12-09 00:08:00,0.0,1.96431,0.00038,408.958,0.036,0.0257,0.0019,139.998,45.000,31265.67664,1.96483,409.083,27.562,45.072,45.000,0.00,0.09,-272.73,-272.78,1,509,-940,14.1,1.3,-38.9,14.3,1.4,-38.2,5.73,2.22,-22.2,20.9
2015-12-09 00:09:00,0.0,1.96440,0.00047,408.934,0.036,0.0253,0.0014,139.998,45.000,31264.36640,1.96487,409.059,27.571,45.072,45.000,0.00,0.09,-272.74,-272.79,1,509,-940,14.1,1.3,-39.1,14.3,1.4,-38.2,5.73,2.22,-22.3,20.9
2015-12-09 00:10:00,0.0,1.96452,0.00033,408.961,0.035,0.0251,0.0018,139.999,45.000,31262.25435,1.96499,409.083,27.575,45.072,45.000,0.00,0.09,-272.73,-272.79,1,509,-940,14.0,1.2,-39.4,14.3,1.3,-38.4,5.73,2.22,-22.3,20.9
2015-12-09 00:11:00,0.0,1.96417,0.00036,408.951,0.029,0.0242,0.0020,140.001,45.000,31263.98917,1.96464,409.071,27.564,45.072,45.000,0.00,0.09,-272.73,-272.78,1,509,-940,14.1,1.2,-39.6,14.3,1.3,-38.7,5.73,2.22,-22.3,20.9
2015-12-09 00:12:00,0.0,1.96390,0.00061,408.946,0.023,0.0239,0.0017,139.997,45.000,31262.22241,1.96442,409.063,27.571,45.072,45.000,0.00,0.09,-272.73,-272.79,1,509,-940,14.1,1.2,-39.9,14.3,1.3,-38.8,5.73,2.22,-22.3,20.9
2015-12-09 00:13:00,0.0,1.96284,0.00034,408.912,0.036,0.0241,0.0019,139.998,45.000,31263.68266,1.96329,409.031,27.591,45.072,45.000,0.00,0.09,-272.73,-272.79,1,509,-940,14.1,1.2,-39.9,14.3,1.3,-39.0,5.73,2.22,-22.4,20.9
2015-12-09 00:14:00,0.0,1.96249,0.00043,408.923,0.028,0.0240,0.0016,139.997,45.000,31261.60206,1.96299,409.041,27.593,45.072,45.000,0.00,0.09,-272.72,-272.79,1,509,-940,14.1,1.2,-39.8,14.3,1.3,-38.9,5.73,2.22,-22.4,20.9
2015-12-09 00:15:00,0.0,1.96228,0.00034,408.944,0.017,0.0245,0.0016,139.999,45.000,31261.67996,1.96274,409.063,27.608,45.072,45.000,0.00,0.09,-272.73,-272.79,1,509,-940,14.1,1.2,-39.7,14.3,1.3,-38.8,5.73,2.22,-22.4,20.9
2015-12-09 00:16:00,0.0,1.96255,0.00039,408.958,0.037,0.0250,0.0015,139.998,45.000,31259.30341,1.96301,409.079,27.569,45.072,45.000,0.00,0.08,-272.73,-272.79,1,509,-940,14.1,1.2,-39.6,14.3,1.3,-38.7,5.73,2.22,-22.4,20.9
2015-12-09 00:17:00,0.0,1.96304,0.00055,409.021,0.042,0.0257,0.0018,139.998,45.000,31258.24860,1.96348,409.146,27.569,45.072,45.000,0.00,0.09,-272.73,-272.78,1,509,-940,14.1,1.2,-39.3,14.3,1.3,-38.6,5.73,2.22,-22.4,20.9
2015-12-09 00:18:00,0.0,1.96368,0.00036,409.141,0.034,0.0261,0.0018,140.001,45.000,31261.19876,1.96422,409.268,27.603,45.072,45.000,0.00,0.09,-272.73,-272.79,1,509,-940,14.1,1.3,-39.0,14.3,1.4,-38.3,5.73,2.22,-22.4,20.9
2015-12-09 00:19:00,0.0,1.96315,0.00040,409.086,0.053,0.0264,0.0021,139.997,45.000,31259.37288,1.96366,409.218,27.623,45.072,45.000,0.00,0.09,-272.74,-272.79,1,509,-940,14.1,1.3,-38.8,14.3,1.4,-38.0,5.73,2.22,-22.5,20.9
2015-12-09 00:20:00,0.0,1.96268,0.00036,409.008,0.037,0.0272,0.0015,139.996,45.000,31260.19294,1.96324,409.142,27.625,45.072,45.000,0.00,0.09,-272.74,-272.79,1,508,-940,14.1,1.3,-38.7,14.3,1.4,-37.9,5.73,2.20,-22.5,20.9
2015-12-09 00:21:00,0.0,1.96249,0.00036,408.993,0.049,0.0270,0.0020,139.999,45.000,31261.80381,1.96302,409.127,27.625,45.072,45.000,0.00,0.09,-272.73,-272.78,1,509,-940,14.1,1.4,-38.4,14.3,1.4,-37.7,5.73,2.21,-22.5,20.9
2015-12-09 00:22:00,0.0,1.96235,0.00044,408.959,0.033,0.0270,0.0021,139.998,45.000,31259.90438,1.96285,409.092,27.625,45.072,45.000,0.00,0.09,-272.74,-272.79,1,509,-940,14.1,1.4,-38.4,14.3,1.4,-37.7,5.73,2.22,-22.5,20.9
2015-12-09 00:23:00,0.0,1.96273,0.00046,409.030,0.040,0.0271,0.0016,139.999,45.000,31258.98914,1.96324,409.161,27.625,45.072,45.000,0.00,0.09,-272.73,-272.79,1,509,-940,14.1,1.3,-38.7,14.3,1.4,-37.8,5.73,2.21,-22.5,20.9
2015-12-09 00:24:00,0.0,1.96246,0.00046,409.012,0.031,0.0257,0.0015,139.996,45.000,31259.24618,1.96298,409.140,27.633,45.072,45.000,0.00,0.09,-272.73,-272.78,1,509,-940,14.1,1.3,-38.9,14.3,1.4,-38.0,5.73,2.14,-22.5,20.9
2015-12-09 00:25:00,0.0,1.96262,0.00032,409.008,0.022,0.0254,0.0016,139.997,45.000,31258.09778,1.96310,409.132,27.628,45.072,45.000,0.00,0.09,-272.73,-272.78,1,509,-940,14.1,1.3,-39.1,14.3,1.4,-38.1,5.73,2.22,-22.5,20.9
2015-12-09 00:26:00,0.0,1.96272,0.00021,409.004,0.042,0.0253,0.0016,139.998,45.000,31256.96600,1.96322,409.127,27.638,45.072,45.000,0.00,0.08,-272.73,-272.79,1,509,-940,14.1,1.2,-39.3,14.3,1.4,-38.4,5.73,2.22,-22.5,20.9
2015-12-09 00:27:00,0.0,1.96281,0.00052,408.991,0.057,0.0254,0.0019,139.998,45.000,31257.35167,1.96331,409.119,27.637,45.072,45.000,0.00,0.09,-272.74,-272.79,1,509,-940,14.1,1.2,-39.4,14.3,1.3,-38.4,5.73,2.21,-22.5,20.9
2015-12-09 00:28:00,0.0,1.96244,0.00048,408.960,0.046,0.0251,0.0015,140.001,45.000,31260.63913,1.96291,409.082,27.622,45.072,45.000,0.00,0.09,-272.73,-272.78,1,509,-940,14.1,1.2,-39.5,14.3,1.3,-38.6,5.73,2.22,-22.5,20.9
2015-12-09 00:29:00,0.0,1.96297,0.00041,408.984,0.036,0.0247,0.0018,139.998,45.000,31258.00166,1.96347,409.107,27.624,45.072,45.000,0.00,0.09,-272.74,-272.79,1,509,-940,14.1,1.2,-39.3,14.3,1.3,-38.5,5.73,2.21,-22.5,21.0
2015-12-09 00:30:00,0.0,1.96281,0.00033,408.949,0.031,0.0246,0.0019,139.998,45.000,31258.53377,1.96325,409.069,27.598,45.072,45.000,0.00,0.09,-272.73,-272.79,1,509,-940,14.1,1.2,-39.6,14.3,1.3,-38.6,5.73,2.22,-22.6,20.9
2015-12-09 00:31:00,0.0,1.96288,0.00039,408.973,0.029,0.0249,0.0022,139.996,45.000,31256.36578,1.96339,409.095,27.614,45.072,45.000,0.00,0.09,-272.73,-272.79,1,509,-940,14.1,1.2,-39.5,14.3,1.3,-38.6,5.73,2.23,-22.6,20.9
2015-12-09 00:32:00,0.0,1.96280,0.00049,408.963,0.029,0.0249,0.0020,139.998,45.000,31259.45403,1.96328,409.085,27.619,45.072,45.000,0.00,0.09,-272.73,-272.79,1,509,-940,14.1,1.2,-39.3,14.3,1.3,-38.5,5.73,2.21,-22.6,20.9
2015-12-09 00:33:00,0.0,1.96231,0.00026,408.908,0.037,0.0253,0.0019,139.999,45.000,31259.30056,1.96280,409.034,27.623,45.072,45.000,0.00,0.09,-272.73,-272.79,1,509,-940,14.1,1.3,-39.1,14.3,1.4,-38.3,5.73,2.22,-22.6,20.9
2015-12-09 00:34:00,0.0,1.96250,0.00042,408.881,0.034,0.0257,0.0019,139.999,45.000,31259.24727,1.96299,409.006,27.625,45.072,45.000,0.00,0.09,-272.73,-272.78,1,509,-940,14.1,1.3,-39.0,14.3,1.4,-38.2,5.73,2.22,-22.6,20.9
2015-12-09 00:35:00,0.0,1.96292,0.00036,408.888,0.033,0.0256,0.0017,139.998,45.000,31256.36772,1.96344,409.016,27.629,45.072,45.000,0.00,0.09,-272.74,-272.78,1,509,-940,14.1,1.3,-38.9,14.3,1.4,-38.1,5.73,2.22,-22.6,20.9
2015-12-09 00:36:00,0.0,1.96235,0.00032,408.896,0.030,0.0257,0.0020,140.000,45.000,31257.75795,1.96282,409.021,27.636,45.072,45.000,0.00,0.09,-272.74,-272.79,1,509,-940,14.1,1.3,-38.9,14.3,1.4,-38.0,5.73,2.20,-22.6,20.9
2015-12-09 00:37:00,0.0,1.96287,0.00047,408.919,0.037,0.0248,0.0013,140.000,45.000,31259.21210,1.96336,409.041,27.639,45.072,45.000,0.00,0.09,-272.73,-272.78,1,509,-940,14.1,1.3,-39.1,14.2,1.4,-38.3,5.73,2.22,-22.6,20.9
2015-12-09 00:38:00,0.0,1.96317,0.00028,408.932,0.024,0.0245,0.0018,139.999,45.000,31258.40304,1.96362,409.053,27.625,45.072,45.000,0.00,0.09,-272.73,-272.78,1,509,-940,14.1,1.2,-39.5,14.3,1.3,-38.4,5.73,2.21,-22.6,20.9
2015-12-09 00:39:00,0.0,1.96325,0.00030,408.950,0.026,0.0242,0.0024,139.999,45.000,31257.48111,1.96370,409.068,27.625,45.072,45.000,0.00,0.09,-272.73,-272.79,1,509,-940,14.1,1.2,-39.7,14.3,1.3,-38.7,5.73,2.22,-22.6,20.9
2015-12-09 00:40:00,0.0,1.96316,0.00047,408.944,0.034,0.0235,0.0015,139.996,45.000,31257.08052,1.96360,409.059,27.613,45.072,45.000,0.00,0.09,-272.74,-272.80,1,509,-940,14.1,1.2,-40.0,14.3,1.3,-39.0,5.73,2.23,-22.6,20.9
2015-12-09 00:41:00,0.0,1.96330,0.00035,408.970,0.041,0.0234,0.0019,139.997,45.000,31258.56329,1.96375,409.085,27.588,45.072,45.000,0.00,0.09,-272.73,-272.78,1,509,-940,14.1,1.2,-40.1,14.3,1.2,-39.1,5.73,2.23,-22.6,20.9
2015-12-09 00:42:00,0.0,1.96299,0.00043,408.957,0.037,0.0233,0.0023,139.999,45.000,31261.27600,1.96347,409.073,27.602,45.072,45.000,0.00,0.09,-272.73,-272.78,1,509,-940,14.1,1.1,-40.2,14.3,1.2,-39.2,5.73,2.23,-22.6,20.9
2015-12-09 00:43:00,0.0,1.96254,0.00036,408.949,0.026,0.0244,0.0019,139.998,45.000,31259.97050,1.96301,409.067,27.602,45.072,45.000,0.00,0.09,-272.74,-272.79,1,509,-940,14.1,1.1,-40.1,14.3,1.2,-39.2,5.73,2.23,-22.6,20.9
2015-12-09 00:44:00,0.0,1.96239,0.00038,408.930,0.031,0.0242,0.0018,140.001,45.000,31260.89658,1.96287,409.050,27.573,45.072,45.000,0.00,0.09,-272.73,-272.79,1,509,-940,14.1,1.2,-39.9,14.3,1.3,-39.0,5.73,2.23,-22.6,20.9
2015-12-09 00:45:00,0.0,1.96197,0.00045,408.875,0.032,0.0242,0.0019,139.997,45.001,31260.76712,1.96244,408.994,27.563,45.072,45.000,0.00,0.09,-272.73,-272.78,1,509,-940,14.1,1.2,-39.6,14.3,1.3,-38.8,5.73,2.23,-22.6,20.9
2015-12-09 00:46:00,0.0,1.96204,0.00041,408.873,0.043,0.0253,0.0017,140.000,45.000,31260.01615,1.96250,408.996,27.565,45.072,45.000,0.00,0.09,-272.74,-272.79,1,509,-940,14.1,1.2,-39.4,14.3,1.3,-38.6,5.73,2.23,-22.6,20.9
2015-12-09 00:47:00,0.0,1.96204,0.00036,408.895,0.035,0.0248,0.0012,140.000,45.000,31260.19802,1.96256,409.017,27.595,45.072,45.000,0.00,0.09,-272.74,-272.79,1,509,-940,14.1,1.3,-39.2,14.3,1.3,-38.5,5.73,2.24,-22.7,20.9
2015-12-09 00:48:00,0.0,1.96145,0.00056,408.818,0.054,0.0260,0.0021,139.998,45.000,31262.14327,1.96199,408.948,27.606,45.072,45.000,0.00,0.09,-272.73,-272.78,1,509,-940,14.1,1.3,-38.8,14.3,1.4,-38.2,5.73,2.23,-22.7,20.9
2015-12-09 00:49:00,0.0,1.96131,0.00031,408.823,0.051,0.0270,0.0019,139.997,45.000,31262.00284,1.96180,408.953,27.619,45.072,45.000,0.00,0.09,-272.74,-272.79,1,509,-940,14.1,1.4,-38.4,14.3,1.4,-37.8,5.73,2.22,-22.7,20.9
2015-12-09 00:50:00,0.0,1.96154,0.00037,408.841,0.039,0.0280,0.0021,139.999,45.000,31263.06043,1.96208,408.981,27.625,45.072,45.000,0.00,0.08,-272.74,-272.79,1,509,-940,14.1,1.4,-38.1,14.3,1.5,-37.5,5.73,2.23,-22.7,20.9
2015-12-09 00:51:00,0.0,1.96185,0.00062,408.874,0.036,0.0291,0.0018,139.997,45.000,31261.38604,1.96241,409.016,27.625,45.071,44.999,0.00,0.09,-272.74,-272.78,1,509,-940,14.1,1.4,-37.8,14.3,1.5,-37.2,5.73,2.19,-22.6,20.9
2015-12-09 00:52:00,0.0,1.96212,0.00042,408.871,0.041,0.0290,0.0016,139.998,45.000,31260.77058,1.96268,409.014,27.625,45.071,45.000,0.00,0.09,-272.73,-272.78,1,509,-940,14.1,1.5,-37.6,14.3,1.6,-36.9,5.73,2.23,-22.7,20.9
2015-12-09 00:53:00,0.0,1.96198,0.00052,408.859,0.033,0.0296,0.0017,139.999,45.000,31261.89287,1.96256,409.004,27.625,45.072,45.000,0.00,0.09,-272.74,-272.79,1,509,-940,14.1,1.5,-37.4,14.3,1.6,-36.8,5.73,2.23,-22.7,20.9
2015-12-09 00:54:00,0.0,1.96192,0.00031,408.846,0.034,0.0297,0.0019,139.999,45.000,31262.13324,1.96249,408.992,27.614,45.072,45.000,0.00,0.09,-272.73,-272.79,1,509,-940,14.1,1.5,-37.4,14.3,1.6,-36.7,5.73,2.23,-22.7,20.9
2015-12-09 00:55:00,0.0,1.96231,0.00047,408.891,0.042,0.0286,0.0019,140.000,45.000,31262.88986,1.96286,409.031,27.593,45.072,45.000,0.00,0.09,-272.73,-272.79,1,509,-940,14.1,1.5,-37.5,14.3,1.6,-36.8,5.73,2.22,-22.7,20.9
2015-12-09 00:56:00,0.0,1.96267,0.00041,408.905,0.036,0.0281,0.0016,139.998,45.000,31260.70452,1.96319,409.041,27.590,45.072,45.000,0.00,0.09,-272.74,-272.79,1,509,-940,14.1,1.5,-37.8,14.3,1.6,-36.9,5.73,2.16,-22.7,20.9
2015-12-09 00:57:00,0.0,1.96301,0.00035,408.926,0.029,0.0279,0.0017,139.999,45.000,31260.58159,1.96353,409.065,27.582,45.072,45.000,0.00,0.09,-272.73,-272.79,1,509,-940,14.1,1.4,-38.0,14.3,1.5,-37.2,5.73,2.23,-22.7,20.9
2015-12-09 00:58:00,0.0,1.96270,0.00030,408.935,0.033,0.0272,0.0018,139.999,45.000,31260.69537,1.96323,409.067,27.613,45.072,45.000,0.00,0.09,-272.73,-272.78,1,509,-940,14.1,1.4,-38.2,14.3,1.5,-37.3,5.73,2.23,-22.7,20.9
2015-12-09 00:59:00,0.0,1.96298,0.00042,408.969,0.048,0.0269,0.0016,139.998,45.000,31260.33945,1.96347,409.101,27.611,45.072,45.000,0.00,0.09,-272.73,-272.78,1,509,-940,14.1,1.4,-38.5,14.3,1.5,-37.6,5.73,2.22,-22.7,20.9
2015-12-09 01:00:00,0.0,1.96305,0.00042,408.976,0.035,0.0262,0.0017,139.998,45.000,31259.76856,1.96357,409.103,27.587,45.072,45.000,0.00,0.09,-272.74,-272.78,1,509,-940,14.1,1.4,-38.5,14.3,1.4,-37.8,5.73,2.23,-22.7,20.9
2015-12-09 01:01:00,0.0,1.96307,0.00042,408.918,0.037,0.0271,0.0014,139.999,45.000,31258.38292,1.96363,409.052,27.564,45.072,45.000,0.00,0.09,-272.73,-272.78,1,509,-940,14.1,1.3,-38.7,14.3,1.4,-37.8,5.73,2.23,-22.7,20.9
2015-12-09 01:02:00,0.0,1.96255,0.00053,408.881,0.035,0.0256,0.0019,139.998,45.000,31259.10104,1.96305,409.008,27.564,45.072,45.000,0.00,0.09,-272.73,-272.79,1,509,-940,14.1,1.3,-39.0,14.3,1.4,-38.0,5.73,2.22,-22.7,20.9
2015-12-09 01:03:00,0.0,1.96246,0.00037,408.883,0.038,0.0251,0.0014,139.999,45.000,31257.27620,1.96293,409.005,27.571,45.072,45.000,0.00,0.09,-272.73,-272.79,1,509,-940,14.1,1.2,-39.3,14.3,1.4,-38.4,5.73,2.22,-22.7,20.9
2015-12-09 01:04:00,0.0,1.96284,0.00036,408.917,0.036,0.0252,0.0017,139.997,45.000,31255.64746,1.96330,409.040,27.583,45.072,45.000,0.00,0.09,-272.72,-272.78,1,509,-940,14.1,1.2,-39.4,14.3,1.3,-38.4,5.73,2.23,-22.7,20.9
2015-12-09 01:05:00,0.0,1.96233,0.00035,408.894,0.039,0.0250,0.0020,140.000,45.000,31257.19981,1.96285,409.019,27.604,45.072,45.000,0.00,0.09,-272.73,-272.78,1,509,-940,14.1,1.2,-39.5,14.3,1.3,-38.6,5.73,2.21,-22.7,20.9
2015-12-09 01:06:00,0.0,1.96186,0.00046,408.821,0.023,0.0238,0.0019,139.997,45.000,31257.68513,1.96235,408.938,27.578,45.072,45.000,0.00,0.09,-272.73,-272.79,1,509,-940,14.1,1.2,-39.5,14.3,1.3,-38.6,5.73,2.21,-22.7,20.9
2015-12-09 01:07:00,0.0,1.96244,0.00038,408.842,0.036,0.0242,0.0016,140.001,45.000,31256.95012,1.96285,408.959,27.563,45.072,45.000,0.00,0.08,-272.73,-272.79,1,509,-940,14.1,1.2,-39.6,14.3,1.3,-38.7,5.73,2.22,-22.7,20.9
2015-12-09 01:08:00,0.0,1.96214,0.00046,408.836,0.031,0.0245,0.0017,139.999,45.000,31258.47840,1.96261,408.957,27.563,45.072,45.000,0.00,0.09,-272.73,-272.78,1,508,-940,14.1,1.2,-39.8,14.3,1.3,-38.8,5.73,2.21,-22.7,20.9
2015-12-09 01:09:00,0.0,1.96308,0.00044,408.870,0.038,0.0238,0.0018,139.999,45.000,31258.66501,1.96353,408.985,27.562,45.072,45.000,0.00,0.09,-272.73,-272.78,1,509,-940,14.1,1.2,-39.7,14.3,1.3,-38.9,5.73,2.21,-22.7,20.9
2015-12-09 01:10:00,0.0,1.96311,0.00034,408.900,0.034,0.0242,0.0017,139.998,45.000,31258.11840,1.96357,409.019,27.563,45.072,45.000,0.00,0.09,-272.73,-272.79,1,509,-940,14.1,1.2,-39.8,14.3,1.3,-39.0,5.73,2.21,-22.7,20.9
2015-12-09 01:11:00,0.0,1.96438,0.00055,408.918,0.029,0.0243,0.0016,139.997,45.000,31257.87808,1.96483,409.036,27.563,45.072,45.000,0.00,0.09,-272.73,-272.79,1,509,-940,14.1,1.2,-39.7,14.3,1.3,-38.8,5.73,2.21,-22.7,20.9
2015-12-09 01:12:00,0.0,1.96314,0.00084,408.859,0.035,0.0245,0.0021,139.999,45.000,31259.30632,1.96366,408.980,27.570,45.072,45.000,0.00,0.09,-272.73,-272.78,1,509,-940,14.1,1.2,-39.5,14.3,1.3,-38.8,5.73,2.22,-22.7,20.9
2015-12-09 01:13:00,0.0,1.96269,0.00041,408.858,0.034,0.0241,0.0018,139.997,44.999,31257.21840,1.96314,408.976,27.576,45.072,45.000,0.00,0.09,-272.74,-272.79,1,509,-940,14.1,1.2,-39.6,14.3,1.3,-38.8,5.73,2.21,-22.7,20.9
2015-12-09 01:14:00,0.0,1.96326,0.00045,408.913,0.034,0.0243,0.0020,139.997,45.000,31256.06891,1.96371,409.033,27.565,45.072,45.000,0.00,0.08,-272.74,-272.78,1,509,-940,14.1,1.2,-39.6,14.3,1.3,-38.7,5.73,2.21,-22.7,20.9
2015-12-09 01:15:00,0.0,1.96289,0.00053,408.923,0.044,0.0243,0.0017,139.999,45.000,31259.06431,1.96342,409.041,27.568,45.072,45.000,0.00,0.09,-272.73,-272.77,1,509,-940,14.1,1.2,-39.5,14.3,1.3,-38.6,5.73,2.22,-22.7,20.9
2015-12-09 01:16:00,0.0,1.96274,0.00045,408.925,0.029,0.0251,0.0018,139.998,45.000,31258.67494,1.96320,409.050,27.592,45.072,45.000,0.00,0.09,-272.73,-272.78,1,509,-940,14.1,1.2,-39.4,14.3,1.3,-38.5,5.73,2.21,-22.7,20.9
2015-12-09 01:17:00,0.0,1.96291,0.00041,408.926,0.044,0.0252,0.0027,139.998,45.000,31258.31506,1.96342,409.050,27.600,45.072,45.000,0.00,0.09,-272.73,-272.79,1,509,-940,14.1,1.3,-39.2,14.3,1.3,-38.5,5.73,2.22,-22.7,20.9
2015-12-09 01:18:00,0.0,1.96261,0.00041,408.925,0.031,0.0252,0.0014,139.999,45.000,31259.89247,1.96311,409.049,27.617,45.072,45.000,0.00,0.09,-272.73,-272.78,1,509,-940,14.1,1.3,-39.1,14.3,1.3,-38.4,5.73,2.22,-22.7,20.9
2015-12-09 01:19:00,0.0,1.96281,0.00041,408.953,0.031,0.0253,0.0019,140.001,45.001,31258.97008,1.96327,409.077,27.617,45.072,45.000,0.00,0.09,-272.73,-272.78,1,509,-940,14.1,1.2,-39.3,14.3,1.3,-38.4,5.73,2.21,-22.7,20.9
2015-12-09 01:20:00,0.0,1.96306,0.00028,408.922,0.043,0.0249,0.0017,139.999,45.001,31258.63909,1.96355,409.043,27.610,45.072,45.000,0.00,0.09,-272.74,-272.79,1,509,-940,14.1,1.2,-39.4,14.3,1.3,-38.5,5.73,2.23,-22.7,20.9
2015-12-09 01:21:00,0.0,1.96297,0.00029,408.936,0.034,0.0251,0.0016,140.000,45.000,31259.46506,1.96345,409.060,27.596,45.072,45.000,0.00,0.09,-272.73,-272.79,1,508,-940,14.1,1.2,-39.4,14.3,1.3,-38.6,5.73,2.22,-22.7,20.9
2015-12-09 01:22:00,0.0,1.96303,0.00036,408.943,0.036,0.0254,0.0016,139.999,45.000,31257.48738,1.96351,409.068,27.610,45.072,45.000,0.00,0.09,-272.72,-272.78,1,509,-940,14.1,1.2,-39.4,14.3,1.3,-38.6,5.73,2.23,-22.7,20.9
2015-12-09 01:23:00,0.0,1.96302,0.00027,408.955,0.040,0.0250,0.0018,139.999,45.000,31256.32321,1.96349,409.079,27.608,45.072,45.000,0.00,0.09,-272.74,-272.79,1,508,-940,14.0,1.2,-39.3,14.3,1.3,-38.4,5.73,2.23,-22.7,20.9
2015-12-09 01:24:00,0.0,1.96277,0.00035,408.928,0.036,0.0249,0.0018,139.999,45.000,31257.08438,1.96328,409.050,27.582,45.072,45.000,0.00,0.08,-272.74,-272.79,1,509,-940,14.1,1.2,-39.4,14.3,1.3,-38.4,5.73,2.23,-22.7,20.9
2015-12-09 01:25:00,0.0,1.96272,0.00037,408.954,0.029,0.0253,0.0018,139.998,45.000,31256.85569,1.96320,409.078,27.591,45.072,45.000,0.00,0.09,-272.73,-272.78,1,509,-940,14.1,1.2,-39.4,14.3,1.3,-38.4,5.73,2.23,-22.7,20.9
2015-12-09 01:26:00,0.0,1.96267,0.00034,408.908,0.031,0.0243,0.0017,140.000,45.000,31257.50830,1.96315,409.027,27.583,45.072,45.000,0.00,0.09,-272.73,-272.79,1,509,-940,14.1,1.2,-39.4,14.3,1.3,-38.5,5.73,2.23,-22.7,20.9
2015-12-09 01:27:00,0.0,1.96255,0.00038,408.888,0.026,0.0241,0.0019,139.999,45.000,31258.75744,1.96301,409.007,27.599,45.072,45.000,0.00,0.09,-272.74,-272.79,1,509,-940,14.1,1.2,-39.6,14.3,1.3,-38.6,5.73,2.23,-22.7,20.9
2015-12-09 01:28:00,0.0,1.96227,0.00036,408.867,0.033,0.0246,0.0015,140.000,45.000,31259.83318,1.96275,408.988,27.622,45.072,45.000,0.00,0.09,-272.73,-272.78,1,509,-940,14.1,1.2,-39.5,14.3,1.3,-38.6,5.73,2.24,-22.7,20.9
2015-12-09 01:29:00,0.0,1.96199,0.00032,408.857,0.031,0.0244,0.0015,139.998,45.000,31259.46325,1.96246,408.978,27.625,45.072,45.000,0.00,0.09,-272.73,-272.78,1,509,-940,14.1,1.3,-39.2,14.3,1.3,-38.4,5.73,2.23,-22.7,20.9
2015-12-09 01:30:00,0.0,1.96194,0.00034,408.856,0.030,0.0270,0.0018,140.000,45.000,31260.45170,1.96246,408.987,27.625,45.072,45.000,0.00,0.08,-272.74,-272.78,1,509,-940,14.1,1.3,-39.0,14.3,1.4,-38.3,5.73,2.23,-22.7,20.9
2015-12-09 01:31:00,0.0,1.96181,0.00036,408.839,0.034,0.0258,0.0019,139.999,45.000,31260.56369,1.96232,408.966,27.625,45.072,45.000,0.00,0.09,-272.74,-272.78,1,509,-940,14.0,1.3,-38.8,14.3,1.4,-38.1,5.73,2.24,-22.7,20.9
2015-12-09 01:32:00,0.0,1.96237,0.00036,408.877,0.037,0.0262,0.0013,139.998,45.000,31258.25882,1.96284,409.005,27.616,45.072,45.000,0.00,0.09,-272.73,-272.78,1,509,-940,14.1,1.3,-38.6,14.3,1.4,-37.9,5.73,2.24,-22.7,20.9
2015-12-09 01:33:00,0.0,1.96215,0.00040,408.863,0.032,0.0266,0.0012,139.999,45.000,31260.27970,1.96269,408.994,27.606,45.072,45.000,0.00,0.08,-272.74,-272.79,1,509,-940,14.1,1.4,-38.4,14.3,1.4,-37.7,5.73,2.24,-22.7,20.9
2015-12-09 01:34:00,0.0,1.96245,0.00037,408.874,0.033,0.0277,0.0016,140.000,45.000,31260.76387,1.96298,409.010,27.578,45.072,45.000,0.00,0.09,-272.74,-272.79,1,509,-940,14.0,1.4,-38.3,14.3,1.5,-37.5,5.73,2.24,-22.7,20.9
2015-12-09 01:35:00,0.0,1.96208,0.00040,408.888,0.036,0.0273,0.0012,140.000,45.000,31259.74913,1.96262,409.022,27.564,45.072,45.000,0.00,0.09,-272.72,-272.78,1,509,-940,14.1,1.4,-38.1,14.3,1.5,-37.5,5.73,2.23,-22.7,20.9
2015-12-09 01:36:00,0.0,1.96256,0.00039,408.882,0.049,0.0271,0.0010,139.999,45.000,31259.39688,1.96305,409.014,27.565,45.072,45.000,0.00,0.09,-272.73,-272.79,1,509,-940,14.1,1.4,-38.1,14.3,1.5,-37.4,5.73,2.21,-22.7,20.9
2015-12-09 01:37:00,0.0,1.96284,0.00043,408.911,0.034,0.0284,0.0025,139.999,45.000,31259.28883,1.96341,409.051,27.568,45.072,45.000,0.00,0.08,-272.74,-272.79,1,508,-940,14.0,1.4,-38.0,14.3,1.5,-37.3,5.73,2.18,-22.7,20.9
2015-12-09 01:38:00,0.0,1.96226,0.00032,408.905,0.028,0.0285,0.0016,139.997,45.000,31257.48871,1.96281,409.046,27.563,45.072,45.000,0.00,0.09,-272.73,-272.78,1,509,-940,14.1,1.4,-37.9,14.3,1.5,-37.2,5.73,2.22,-22.7,20.9
2015-12-09 01:39:00,0.0,1.96285,0.00045,408.907,0.035,0.0286,0.0027,140.000,45.000,31257.45108,1.96339,409.048,27.564,45.072,45.000,0.00,0.09,-272.73,-272.78,1,509,-940,14.1,1.5,-37.8,14.3,1.5,-37.1,5.73,2.23,-22.7,20.9
2015-12-09 01:40:00,0.0,1.96327,0.00049,408.933,0.038,0.0294,0.0024,140.001,45.000,31259.11969,1.96380,409.077,27.563,45.072,45.000,0.00,0.08,-272.74,-272.78,1,509,-940,14.1,1.5,-37.8,14.3,1.5,-37.1,5.73,2.11,-22.7,20.9
2015-12-09 01:41:00,0.0,1.96332,0.00037,408.940,0.030,0.0291,0.0017,139.998,45.000,31259.69788,1.96389,409.082,27.576,45.072,45.000,0.00,0.09,-272.74,-272.79,1,508,-940,14.1,1.5,-37.8,14.3,1.6,-37.0,5.73,2.15,-22.7,20.9
2015-12-09 01:42:00,0.0,1.96401,0.00048,408.944,0.038,0.0293,0.0022,139.999,45.000,31258.92979,1.96454,409.089,27.565,45.072,45.000,0.00,0.09,-272.73,-272.78,1,509,-940,14.1,1.5,-37.7,14.3,1.6,-36.9,5.73,2.12,-22.7,20.9
2015-12-09 01:43:00,0.0,1.96374,0.00037,408.931,0.029,0.0286,0.0017,140.000,45.000,31259.84271,1.96432,409.072,27.564,45.072,45.000,0.00,0.08,-272.73,-272.79,1,509,-940,14.1,1.5,-37.6,14.3,1.6,-36.9,5.73,2.22,-22.7,20.9
2015-12-09 01:44:00,0.0,1.96402,0.00055,408.930,0.035,0.0292,0.0017,139.997,45.000,31258.98031,1.96456,409.073,27.573,45.072,45.000,0.00,0.08,-272.73,-272.79,1,508,-940,14.1,1.5,-37.6,14.3,1.6,-36.9,5.73,2.16,-22.7,20.9
2015-12-09 01:45:00,0.0,1.96411,0.00048,408.936,0.032,0.0293,0.0013,139.998,45.000,31259.97149,1.96468,409.082,27.612,45.072,45.000,0.00,0.09,-272.73,-272.78,1,508,-940,14.1,1.5,-37.6,14.3,1.6,-36.8,5.73,2.10,-22.7,20.9